This demonstration page uses our WeatherBlox Daily Observations layout. Learn more.

Left ArrowRight Arrow

34.74481, -87.66753

Hourly Observations for October 2, 2022

Temp ( °F °C ) Dew Point ( °F °C ) Humidity (%) Winds ( mph kmh ) Pressure ( in mb ) Visibility ( mi km ) Precip ( " mm )
12:53 am 00:53 Clear 61 16.1 44 6.7 54 54 N 3 6 30.03 1017 10 16 0.00 0.00
1:53 am 01:53 Clear 61 16.1 45 7.2 56 56 N 6 9 30.03 1017 10 16 0.00 0.00
2:53 am 02:53 Clear 59 15 46 7.8 62 62 NNE 6 9 30.02 1017 10 16 0.00 0.00
3:53 am 03:53 Clear 59 15 47 8.3 64 64 VRB 6 9 30.03 1017 10 16 0.00 0.00
4:53 am 04:53 Clear 57 13.9 46 7.8 67 67 Calm 30.04 1017 10 16 0.00 0.00
5:53 am 05:53 Clear 57 13.9 46 7.8 67 67 VRB 3 6 30.07 1018 10 16 0.00 0.00
6:53 am 06:53 Sunny 56 13.3 46 7.8 69 69 VRB 3 6 30.09 1019 10 16 0.00 0.00
7:53 am 07:53 Sunny 59 15 47 8.3 64 64 VRB 5 7 30.11 1020 10 16 0.00 0.00
8:53 am 08:53 Sunny 63 17.2 47 8.3 56 56 NNE 7 11 30.11 1020 10 16 0.00 0.00
9:53 am 09:53 Sunny 67 19.4 48 8.9 51 51 VRB 6 9 30.12 1020 10 16 0.00 0.00
10:53 am 10:53 Sunny 70 21.1 48 8.9 46 46 NNE 9 15 30.12 1020 10 16 0.00 0.00
11:53 am 11:53 Sunny 74 23.3 49 9.4 41 41 VRB 5 7 30.11 1020 10 16 0.00 0.00
12:53 pm 12:53 Sunny 78 25.6 47 8.3 33 33 NNE 7 11 30.09 1019 10 16 0.00 0.00
1:53 pm 13:53 Sunny 80 26.7 46 7.8 30 30 NNE 12 19 30.06 1018 10 16 0.00 0.00
2:53 pm 14:53 Sunny 81 27.2 46 7.8 29 29 NNE 12 19 30.05 1018 10 16 0.00 0.00
3:53 pm 15:53 Sunny 82 27.8 44 6.7 26 26 NNE 12 19 30.05 1018 10 16 0.00 0.00
4:53 pm 16:53 Sunny 81 27.2 45 7.2 28 28 NNE 10 17 30.06 1018 10 16 0.00 0.00
5:53 pm 17:53 Sunny 78 25.6 46 7.8 32 32 NNE 10 17 30.07 1018 10 16 0.00 0.00
6:53 pm 18:53 Clear 74 23.3 46 7.8 37 37 NNE 7 11 30.09 1019 10 16 0.00 0.00
7:53 pm 19:53 Clear 70 21.1 48 8.9 46 46 NNE 6 9 30.10 1019 10 16 0.00 0.00
8:53 pm 20:53 Clear 68 20 49 9.4 50 50 NNE 7 11 30.11 1020 10 16 0.00 0.00
9:53 pm 21:53 Clear 68 20 49 9.4 50 50 NE 7 11 30.13 1020 10 16 0.00 0.00
10:53 pm 22:53 Clear 66 18.9 49 9.4 54 54 NE 7 11 30.13 1020 10 16 0.00 0.00
11:53 pm 23:53 Clear 64 17.8 50 10 60 60 NE 7 11 30.13 1020 10 16 0.00 0.00

Powered by AerisWeather